| time (UTC) | temp F | wind direction | speed MPH | gust MPH | rain 1hr in | rain 24hr in | rain mn in | humidity % | barometer mb |
| 20260507202951 | 64 | 317 | 8.0 | 13.0 | 0.00 | 0.01 | 0.01 | 35 | 1005.8 |
| 20260507202447 | 65 | 315 | 6.0 | 10.0 | 0.00 | 0.01 | 0.01 | 33 | 1006.0 |
| 20260507201944 | 65 | 274 | 2.0 | 9.0 | 0.00 | 0.01 | 0.01 | 35 | 1005.9 |
| 20260507201438 | 64 | 56 | 2.0 | 6.0 | 0.00 | 0.01 | 0.01 | 36 | 1006.0 |
| 20260507200936 | 65 | 191 | 7.0 | 14.0 | 0.00 | 0.01 | 0.01 | 35 | 1006.0 |
| 20260507200431 | 65 | 331 | 2.0 | 7.0 | 0.00 | 0.01 | 0.01 | 34 | 1006.0 |
| 20260507195927 | 66 | 289 | 1.0 | 7.0 | 0.00 | 0.01 | 0.01 | 33 | 1006.1 |
| 20260507195425 | 65 | 323 | 8.0 | 12.0 | 0.00 | 0.01 | 0.01 | 34 | 1006.0 |
| 20260507194922 | 64 | 330 | 8.0 | 14.0 | 0.00 | 0.01 | 0.01 | 35 | 1006.1 |
| 20260507194418 | 62 | 325 | 6.0 | 15.0 | 0.00 | 0.01 | 0.01 | 35 | 1006.2 |
| 20260507193915 | 64 | 260 | 4.0 | 17.0 | 0.00 | 0.01 | 0.01 | 35 | 1005.9 |
| 20260507193412 | 65 | 321 | 4.0 | 5.0 | 0.00 | 0.01 | 0.01 | 36 | 1006.0 |
| 20260507192908 | 65 | 2 | 3.0 | 8.0 | 0.00 | 0.01 | 0.01 | 35 | 1006.1 |
| 20260507192404 | 64 | 250 | 4.0 | 20.0 | 0.00 | 0.01 | 0.01 | 35 | 1006.3 |
| 20260507191902 | 64 | 333 | 13.0 | 19.0 | 0.00 | 0.01 | 0.01 | 35 | 1006.2 |
| 20260507191358 | 64 | 244 | 3.0 | 18.0 | 0.00 | 0.01 | 0.01 | 34 | 1006.4 |
| 20260507190854 | 64 | 270 | 1.0 | 11.0 | 0.00 | 0.01 | 0.01 | 35 | 1006.3 |
| 20260507190352 | 65 | 314 | 6.0 | 10.0 | 0.00 | 0.01 | 0.01 | 35 | 1006.3 |
| 20260507185851 | 65 | 26 | 1.0 | 20.0 | 0.00 | 0.01 | 0.01 | 36 | 1006.3 |
| 20260507185348 | 66 | 318 | 10.0 | 10.0 | 0.00 | 0.01 | 0.01 | 37 | 1006.2 |
| 20260507184845 | 66 | 225 | 5.0 | 14.0 | 0.00 | 0.01 | 0.01 | 32 | 1006.2 |
| 20260507184343 | 66 | 303 | 4.0 | 7.0 | 0.00 | 0.01 | 0.01 | 35 | 1006.4 |
| 20260507183839 | 65 | 325 | 10.0 | 11.0 | 0.00 | 0.01 | 0.01 | 36 | 1006.4 |
| 20260507183336 | 64 | 270 | 3.0 | 16.0 | 0.00 | 0.01 | 0.01 | 37 | 1006.2 |
| 20260507182834 | 65 | 346 | 2.0 | 12.0 | 0.00 | 0.01 | 0.01 | 38 | 1006.4 |
| 20260507182329 | 66 | 209 | 0.0 | 9.0 | 0.00 | 0.01 | 0.01 | 38 | 1006.5 |
| 20260507181826 | 66 | 301 | 9.0 | 11.0 | 0.00 | 0.01 | 0.01 | 37 | 1006.4 |
| 20260507181322 | 65 | 309 | 5.0 | 16.0 | 0.00 | 0.01 | 0.01 | 40 | 1006.5 |
| 20260507180819 | 65 | 166 | 0.0 | 9.0 | 0.00 | 0.01 | 0.01 | 40 | 1006.6 |
| 20260507180316 | 64 | 297 | 1.0 | 13.0 | 0.00 | 0.01 | 0.01 | 40 | 1006.4 |
| 20260507175811 | 64 | 343 | 4.0 | 17.0 | 0.00 | 0.01 | 0.01 | 40 | 1006.4 |
| 20260507175309 | 64 | 257 | 3.0 | 18.0 | 0.00 | 0.01 | 0.01 | 42 | 1006.3 |
| 20260507174806 | 63 | 239 | 5.0 | 11.0 | 0.00 | 0.01 | 0.01 | 37 | 1006.2 |
| 20260507174304 | 63 | 328 | 10.0 | 11.0 | 0.00 | 0.01 | 0.01 | 40 | 1006.4 |
| 20260507173801 | 65 | 259 | 5.0 | 7.0 | 0.00 | 0.01 | 0.01 | 41 | 1006.4 |
| 20260507173258 | 64 | 313 | 5.0 | 9.0 | 0.00 | 0.01 | 0.01 | 42 | 1006.4 |
| 20260507172754 | 63 | 229 | 12.0 | 16.0 | 0.00 | 0.01 | 0.01 | 46 | 1006.5 |
| 20260507172251 | 63 | 337 | 8.0 | 14.0 | 0.00 | 0.01 | 0.01 | 50 | 1006.5 |
| 20260507171746 | 62 | 298 | 6.0 | 15.0 | 0.00 | 0.01 | 0.01 | 50 | 1006.5 |
| 20260507171244 | 61 | 304 | 7.0 | 11.0 | 0.00 | 0.01 | 0.01 | 50 | 1006.8 |
| 20260507170741 | 63 | 301 | 4.0 | 19.0 | 0.00 | 0.01 | 0.01 | 47 | 1006.4 |
| 20260507170237 | 64 | 261 | 0.0 | 11.0 | 0.00 | 0.01 | 0.01 | 48 | 1006.7 |
| 20260507165733 | 62 | 275 | 2.0 | 7.0 | 0.00 | 0.01 | 0.01 | 52 | 1006.9 |
| 20260507165229 | 63 | 327 | 6.0 | 12.0 | 0.00 | 0.01 | 0.01 | 53 | 1006.9 |
| 20260507164726 | 61 | 279 | 0.0 | 14.0 | 0.00 | 0.01 | 0.01 | 53 | 1007.1 |
| 20260507164223 | 62 | 319 | 9.0 | 10.0 | 0.00 | 0.01 | 0.01 | 52 | 1007.0 |
| 20260507163720 | 61 | 259 | 4.0 | 8.0 | 0.00 | 0.01 | 0.01 | 54 | 1007.2 |
| 20260507163218 | 62 | 315 | 10.0 | 10.0 | 0.00 | 0.01 | 0.01 | 54 | 1007.2 |
| 20260507162713 | 63 | 265 | 2.0 | 17.0 | 0.00 | 0.01 | 0.01 | 52 | 1007.0 |
| 20260507162210 | 64 | 257 | 2.0 | 9.0 | 0.00 | 0.01 | 0.01 | 50 | 1007.0 |
| 20260507161706 | 64 | 239 | 5.0 | 13.0 | 0.00 | 0.01 | 0.01 | 50 | 1006.9 |
| 20260507161203 | 62 | 297 | 3.0 | 10.0 | 0.00 | 0.01 | 0.01 | 50 | 1007.1 |
| 20260507160659 | 62 | 310 | 3.0 | 8.0 | 0.00 | 0.01 | 0.01 | 52 | 1007.2 |
| 20260507160156 | 62 | 312 | 5.0 | 10.0 | 0.00 | 0.01 | 0.01 | 53 | 1007.1 |
| 20260507155651 | 63 | 315 | 7.0 | 9.0 | 0.00 | 0.01 | 0.01 | 52 | 1007.4 |
| 20260507155142 | 61 | 205 | 3.0 | 15.0 | 0.00 | 0.01 | 0.01 | 53 | 1007.3 |
| 20260507154639 | 61 | 315 | 2.0 | 6.0 | 0.00 | 0.01 | 0.01 | 54 | 1007.4 |
| 20260507154137 | 60 | 201 | 5.0 | 8.0 | 0.00 | 0.01 | 0.01 | 55 | 1007.5 |
| 20260507153633 | 60 | 284 | 6.0 | 9.0 | 0.00 | 0.01 | 0.01 | 55 | 1007.5 |
| 20260507153129 | 61 | 315 | 3.0 | 9.0 | 0.00 | 0.01 | 0.01 | 54 | 1007.5 |
| 20260507152626 | 62 | 313 | 5.0 | 10.0 | 0.00 | 0.01 | 0.01 | 55 | 1007.5 |
| 20260507152122 | 63 | 316 | 11.0 | 13.0 | 0.00 | 0.01 | 0.01 | 50 | 1007.6 |
| 20260507151618 | 61 | 236 | 3.0 | 8.0 | 0.00 | 0.01 | 0.01 | 54 | 1007.7 |
| 20260507151115 | 61 | 258 | 6.0 | 11.0 | 0.00 | 0.01 | 0.01 | 53 | 1007.6 |
| 20260507150612 | 60 | 333 | 3.0 | 15.0 | 0.00 | 0.01 | 0.01 | 57 | 1007.5 |
| 20260507150108 | 61 | 244 | 5.0 | 17.0 | 0.00 | 0.01 | 0.01 | 55 | 1007.6 |
| 20260507145603 | 61 | 258 | 2.0 | 7.0 | 0.00 | 0.01 | 0.01 | 55 | 1007.9 |
| 20260507145101 | 61 | 292 | 3.0 | 8.0 | 0.00 | 0.01 | 0.01 | 54 | 1007.7 |
| 20260507144557 | 61 | 90 | 2.0 | 9.0 | 0.00 | 0.01 | 0.01 | 57 | 1007.6 |
| 20260507144056 | 61 | 354 | 3.0 | 8.0 | 0.00 | 0.01 | 0.01 | 57 | 1007.6 |
| 20260507143552 | 60 | 18 | 3.0 | 18.0 | 0.00 | 0.01 | 0.01 | 58 | 1007.5 |
| 20260507143050 | 60 | 324 | 5.0 | 10.0 | 0.00 | 0.01 | 0.01 | 58 | 1007.4 |
| 20260507142549 | 59 | 314 | 4.0 | 8.0 | 0.00 | 0.01 | 0.01 | 58 | 1007.6 |
| 20260507142047 | 60 | 319 | 2.0 | 9.0 | 0.00 | 0.01 | 0.01 | 56 | 1007.5 |
| 20260507141543 | 59 | 297 | 3.0 | 8.0 | 0.00 | 0.01 | 0.01 | 56 | 1007.4 |
| 20260507141040 | 59 | 238 | 3.0 | 9.0 | 0.00 | 0.01 | 0.01 | 58 | 1007.4 |
| 20260507140537 | 59 | 295 | 0.0 | 9.0 | 0.00 | 0.01 | 0.01 | 57 | 1007.3 |
| 20260507140034 | 58 | 322 | 4.0 | 13.0 | 0.00 | 0.01 | 0.01 | 58 | 1007.7 |
| 20260507135531 | 60 | 315 | 6.0 | 7.0 | 0.00 | 0.01 | 0.01 | 60 | 1007.5 |
| 20260507135028 | 59 | 266 | 3.0 | 6.0 | 0.00 | 0.01 | 0.01 | 64 | 1007.6 |
| 20260507134525 | 59 | 315 | 4.0 | 7.0 | 0.00 | 0.01 | 0.01 | 61 | 1007.6 |
| 20260507134020 | 58 | 323 | 4.0 | 5.0 | 0.00 | 0.01 | 0.01 | 66 | 1007.8 |
| 20260507133517 | 58 | 254 | 7.0 | 7.0 | 0.00 | 0.01 | 0.01 | 65 | 1007.8 |
| 20260507133015 | 58 | 298 | 5.0 | 5.0 | 0.00 | 0.01 | 0.01 | 65 | 1007.8 |
| 20260507132511 | 58 | 240 | 4.0 | 8.0 | 0.00 | 0.01 | 0.01 | 66 | 1007.8 |
| 20260507132007 | 57 | 312 | 0.0 | 5.0 | 0.00 | 0.01 | 0.01 | 68 | 1007.8 |
| 20260507131505 | 55 | 0 | 3.0 | 9.0 | 0.00 | 0.01 | 0.01 | 69 | 1008.0 |
| 20260507131001 | 56 | 246 | 2.0 | 5.0 | 0.00 | 0.01 | 0.01 | 70 | 1008.0 |
| 20260507130459 | 56 | 289 | 3.0 | 6.0 | 0.00 | 0.01 | 0.01 | 71 | 1008.0 |
| 20260507125957 | 55 | 251 | 3.0 | 6.0 | 0.00 | 0.01 | 0.01 | 73 | 1007.8 |
| 20260507125455 | 55 | 307 | 4.0 | 8.0 | 0.00 | 0.01 | 0.01 | 73 | 1008.0 |
| 20260507124952 | 55 | 303 | 2.0 | 7.0 | 0.00 | 0.01 | 0.01 | 74 | 1007.8 |
| 20260507124448 | 54 | 290 | 2.0 | 7.0 | 0.00 | 0.01 | 0.01 | 75 | 1008.1 |
| 20260507123946 | 55 | 319 | 6.0 | 10.0 | 0.00 | 0.01 | 0.01 | 76 | 1008.1 |
| 20260507123444 | 54 | 257 | 2.0 | 6.0 | 0.00 | 0.01 | 0.01 | 77 | 1008.0 |
| 20260507122940 | 55 | 245 | 4.0 | 4.0 | 0.00 | 0.01 | 0.01 | 78 | 1008.1 |
| 20260507122435 | 54 | 322 | 4.0 | 5.0 | 0.00 | 0.01 | 0.01 | 79 | 1008.0 |
| 20260507121932 | 54 | 299 | 2.0 | 4.0 | 0.00 | 0.01 | 0.01 | 81 | 1008.0 |
| 20260507121427 | 53 | 295 | 2.0 | 4.0 | 0.00 | 0.01 | 0.01 | 81 | 1008.0 |
| 20260507120924 | 52 | 340 | 0.0 | 4.0 | 0.00 | 0.01 | 0.01 | 84 | 1007.8 |
| 20260507120420 | 53 | 325 | 1.0 | 4.0 | 0.00 | 0.01 | 0.01 | 84 | 1008.1 |
| 20260507115917 | 52 | 337 | 1.0 | 5.0 | 0.00 | 0.01 | 0.01 | 85 | 1008.3 |
| 20260507115413 | 52 | 302 | 3.0 | 5.0 | 0.00 | 0.01 | 0.01 | 86 | 1008.1 |
| 20260507114909 | 50 | 270 | 0.0 | 4.0 | 0.00 | 0.01 | 0.01 | 89 | 1007.8 |
| 20260507114406 | 49 | 315 | 2.0 | 3.0 | 0.00 | 0.01 | 0.01 | 90 | 1007.6 |
| 20260507113903 | 49 | 306 | 1.0 | 2.0 | 0.00 | 0.01 | 0.01 | 90 | 1007.9 |
| 20260507113400 | 49 | 311 | 3.0 | 4.0 | 0.00 | 0.01 | 0.01 | 90 | 1007.7 |
| 20260507112857 | 49 | 309 | 2.0 | 3.0 | 0.00 | 0.01 | 0.01 | 91 | 1007.8 |
| 20260507112354 | 48 | 286 | 0.0 | 4.0 | 0.00 | 0.01 | 0.01 | 92 | 1008.1 |
| 20260507111852 | 48 | 270 | 2.0 | 3.0 | 0.00 | 0.01 | 0.01 | 93 | 1008.1 |
| 20260507111348 | 48 | 264 | 2.0 | 3.0 | 0.00 | 0.01 | 0.01 | 93 | 1008.1 |
| 20260507110845 | 48 | 283 | 1.0 | 3.0 | 0.00 | 0.01 | 0.01 | 92 | 1007.8 |
| 20260507110341 | 48 | 339 | 2.0 | 3.0 | 0.00 | 0.01 | 0.01 | 92 | 1007.6 |
| 20260507105838 | 48 | 0 | 3.0 | 5.0 | 0.00 | 0.01 | 0.01 | 92 | 1007.7 |
| 20260507105334 | 48 | 0 | 2.0 | 4.0 | 0.00 | 0.01 | 0.01 | 92 | 1007.6 |
| 20260507104831 | 48 | 3 | 2.0 | 6.0 | 0.00 | 0.01 | 0.01 | 92 | 1007.6 |
| 20260507104328 | 48 | 357 | 3.0 | 5.0 | 0.00 | 0.01 | 0.01 | 92 | 1007.5 |
| 20260507103824 | 48 | 301 | 3.0 | 5.0 | 0.00 | 0.01 | 0.01 | 92 | 1007.5 |
| 20260507103320 | 48 | 325 | 5.0 | 6.0 | 0.00 | 0.01 | 0.01 | 92 | 1007.6 |
| 20260507102817 | 48 | 307 | 2.0 | 5.0 | 0.00 | 0.01 | 0.01 | 92 | 1007.3 |
| 20260507102314 | 48 | 295 | 2.0 | 7.0 | 0.00 | 0.01 | 0.01 | 92 | 1007.6 |
| 20260507101810 | 48 | 275 | 2.0 | 8.0 | 0.00 | 0.01 | 0.01 | 91 | 1007.6 |
| 20260507101310 | 48 | 314 | 5.0 | 6.0 | 0.00 | 0.01 | 0.01 | 92 | 1007.4 |
| 20260507100808 | 48 | 270 | 0.0 | 5.0 | 0.00 | 0.01 | 0.01 | 92 | 1007.7 |
| 20260507100306 | 48 | 297 | 1.0 | 11.0 | 0.00 | 0.01 | 0.01 | 92 | 1007.4 |
| 20260507095804 | 48 | 346 | 1.0 | 8.0 | 0.00 | 0.01 | 0.01 | 92 | 1007.4 |
| 20260507095300 | 48 | 324 | 3.0 | 5.0 | 0.00 | 0.01 | 0.01 | 92 | 1007.6 |
| 20260507094757 | 48 | 305 | 4.0 | 7.0 | 0.00 | 0.01 | 0.01 | 92 | 1007.8 |
| 20260507094254 | 48 | 329 | 4.0 | 5.0 | 0.00 | 0.01 | 0.01 | 93 | 1007.5 |
| 20260507093750 | 48 | 289 | 1.0 | 6.0 | 0.00 | 0.01 | 0.01 | 93 | 1007.4 |
| 20260507093249 | 48 | 326 | 0.0 | 12.0 | 0.00 | 0.01 | 0.01 | 93 | 1007.4 |
| 20260507092746 | 48 | 218 | 2.0 | 7.0 | 0.00 | 0.01 | 0.01 | 93 | 1007.3 |
| 20260507092242 | 48 | 320 | 4.0 | 8.0 | 0.00 | 0.01 | 0.01 | 94 | 1007.5 |
| 20260507091739 | 48 | 306 | 3.0 | 6.0 | 0.00 | 0.01 | 0.01 | 93 | 1007.1 |
| 20260507091235 | 48 | 320 | 5.0 | 9.0 | 0.00 | 0.01 | 0.01 | 94 | 1007.4 |
| 20260507090731 | 48 | 307 | 3.0 | 9.0 | 0.00 | 0.01 | 0.01 | 95 | 1007.2 |
| 20260507090228 | 48 | 332 | 4.0 | 7.0 | 0.00 | 0.01 | 0.01 | 95 | 1007.1 |
| 20260507085725 | 48 | 312 | 4.0 | 5.0 | 0.00 | 0.01 | 0.01 | 95 | 1007.5 |
| 20260507085217 | 48 | 263 | 1.0 | 6.0 | 0.00 | 0.01 | 0.01 | 95 | 1007.1 |
| 20260507084714 | 48 | 326 | 4.0 | 6.0 | 0.00 | 0.01 | 0.01 | 95 | 1007.0 |
| 20260507084210 | 48 | 300 | 3.0 | 10.0 | 0.02 | 0.01 | 0.01 | 95 | 1007.0 |
| 20260507083708 | 48 | 315 | 4.0 | 5.0 | 0.02 | 0.01 | 0.01 | 94 | 1007.1 |
| 20260507083204 | 48 | 311 | 3.0 | 5.0 | 0.00 | 0.00 | 0.00 | 94 | 1007.2 |
| 20260507082659 | 49 | 309 | 2.0 | 6.0 | 0.02 | 0.00 | 0.00 | 93 | 1006.9 |
| 20260507082155 | 49 | 310 | 2.0 | 7.0 | 0.02 | 0.00 | 0.00 | 93 | 1006.8 |
| 20260507081652 | 50 | 339 | 7.0 | 18.0 | 0.00 | 0.00 | 0.00 | 91 | 1006.8 |
| 20260507081143 | 50 | 290 | 3.0 | 8.0 | 0.00 | 0.00 | 0.00 | 90 | 1007.0 |
| 20260507080640 | 50 | 307 | 4.0 | 10.0 | 0.00 | 0.00 | 0.00 | 90 | 1007.2 |
| 20260507080136 | 50 | 317 | 5.0 | 7.0 | 0.00 | 0.00 | 0.00 | 91 | 1007.1 |
| 20260507075631 | 50 | 281 | 4.0 | 7.0 | 0.00 | 0.00 | 0.00 | 91 | 1007.1 |
| 20260507075128 | 50 | 315 | 9.0 | 13.0 | 0.00 | 0.00 | 0.00 | 91 | 1006.9 |
| 20260507074625 | 50 | 321 | 6.0 | 9.0 | 0.00 | 0.00 | 0.00 | 91 | 1006.7 |
| 20260507074123 | 50 | 325 | 7.0 | 8.0 | 0.00 | 0.00 | 0.00 | 91 | 1006.8 |
| 20260507073619 | 50 | 317 | 3.0 | 7.0 | 0.00 | 0.00 | 0.00 | 91 | 1006.7 |
| 20260507073115 | 50 | 310 | 4.0 | 8.0 | 0.00 | 0.00 | 0.00 | 91 | 1006.6 |
| 20260507072613 | 50 | 323 | 6.0 | 7.0 | 0.00 | 0.00 | 0.00 | 91 | 1006.6 |
| 20260507072110 | 50 | 304 | 5.0 | 9.0 | 0.00 | 0.00 | 0.00 | 91 | 1006.7 |
| 20260507071607 | 50 | 335 | 3.0 | 8.0 | 0.00 | 0.00 | 0.00 | 91 | 1007.1 |
| 20260507071103 | 50 | 330 | 6.0 | 6.0 | 0.00 | 0.00 | 0.00 | 91 | 1006.6 |
| 20260507070601 | 50 | 329 | 5.0 | 10.0 | 0.00 | 0.00 | 0.00 | 91 | 1006.6 |
| 20260507070057 | 50 | 307 | 3.0 | 9.0 | 0.00 | 0.00 | 0.00 | 90 | 1006.7 |
| 20260507065554 | 50 | 315 | 7.0 | 8.0 | 0.00 | 0.00 | 0.00 | 90 | 1006.5 |
| 20260507065051 | 51 | 243 | 0.0 | 11.0 | 0.00 | 0.00 | 0.00 | 91 | 1006.8 |
| 20260507064549 | 50 | 229 | 2.0 | 4.0 | 0.00 | 0.00 | 0.00 | 91 | 1006.4 |
| 20260507064047 | 50 | 12 | 1.0 | 11.0 | 0.00 | 0.00 | 0.00 | 91 | 1006.5 |
| 20260507063544 | 51 | 315 | 2.0 | 7.0 | 0.00 | 0.00 | 0.00 | 91 | 1006.3 |
| 20260507063041 | 51 | 274 | 0.0 | 8.0 | 0.00 | 0.00 | 0.00 | 91 | 1006.2 |
| 20260507062538 | 51 | 259 | 3.0 | 7.0 | 0.00 | 0.00 | 0.00 | 91 | 1006.0 |
| 20260507062035 | 51 | 339 | 4.0 | 11.0 | 0.00 | 0.00 | 0.00 | 91 | 1006.3 |
| 20260507061533 | 51 | 315 | 10.0 | 10.0 | 0.00 | 0.00 | 0.00 | 91 | 1006.2 |
| 20260507061031 | 51 | 331 | 3.0 | 7.0 | 0.00 | 0.00 | 0.00 | 91 | 1006.3 |
| 20260507060528 | 51 | 296 | 3.0 | 6.0 | 0.00 | 0.00 | 0.00 | 91 | 1006.5 |
| 20260507060025 | 51 | 319 | 6.0 | 8.0 | 0.00 | 0.00 | 0.00 | 91 | 1006.7 |
| 20260507055520 | 51 | 289 | 4.0 | 10.0 | 0.00 | 0.00 | 0.00 | 92 | 1006.6 |
| 20260507055016 | 51 | 357 | 7.0 | 12.0 | 0.00 | 0.00 | 0.00 | 92 | 1006.6 |
| 20260507054513 | 52 | 262 | 3.0 | 11.0 | 0.00 | 0.00 | 0.00 | 93 | 1006.6 |
| 20260507054010 | 52 | 297 | 5.0 | 8.0 | 0.00 | 0.00 | 0.00 | 92 | 1006.7 |
| 20260507053508 | 52 | 350 | 3.0 | 8.0 | 0.00 | 0.00 | 0.00 | 93 | 1006.7 |
| 20260507053006 | 52 | 306 | 5.0 | 8.0 | 0.00 | 0.00 | 0.00 | 93 | 1006.7 |
| 20260507052503 | 52 | 347 | 3.0 | 6.0 | 0.00 | 0.00 | 0.00 | 94 | 1006.6 |
| 20260507052000 | 53 | 257 | 3.0 | 7.0 | 0.00 | 0.00 | 0.00 | 93 | 1006.3 |
| 20260507051458 | 53 | 351 | 3.0 | 8.0 | 0.00 | 0.00 | 0.00 | 93 | 1006.1 |
| 20260507050954 | 53 | 323 | 7.0 | 9.0 | 0.00 | 0.00 | 0.00 | 93 | 1006.3 |
| 20260507050450 | 53 | 315 | 3.0 | 10.0 | 0.00 | 0.00 | 0.00 | 94 | 1006.3 |
| 20260507045948 | 53 | 315 | 7.0 | 9.0 | 0.00 | 0.00 | 0.00 | 93 | 1006.4 |
| 20260507045444 | 53 | 326 | 0.0 | 8.0 | 0.00 | 0.00 | 0.00 | 94 | 1006.3 |
| 20260507044942 | 53 | 266 | 5.0 | 7.0 | 0.00 | 0.00 | 0.00 | 95 | 1006.4 |
| 20260507044438 | 53 | 328 | 6.0 | 7.0 | 0.00 | 0.00 | 0.00 | 95 | 1006.6 |
| 20260507043934 | 54 | 286 | 2.0 | 4.0 | 0.00 | 0.00 | 0.00 | 95 | 1006.7 |
| 20260507043431 | 54 | 320 | 4.0 | 9.0 | 0.00 | 0.00 | 0.00 | 95 | 1006.6 |
| 20260507042927 | 54 | 310 | 5.0 | 10.0 | 0.00 | 0.00 | 0.00 | 95 | 1006.5 |
| 20260507042424 | 53 | 321 | 8.0 | 11.0 | 0.00 | 0.00 | 0.00 | 98 | 1006.4 |
| 20260507041919 | 53 | 293 | 2.0 | 5.0 | 0.00 | 0.00 | 0.00 | 99 | 1006.3 |
| 20260507041416 | 53 | 304 | 4.0 | 11.0 | 0.00 | 0.00 | 0.00 | 99 | 1006.4 |
| 20260507040914 | 53 | 259 | 4.0 | 6.0 | 0.00 | 0.00 | 0.00 | 99 | 1006.3 |
| 20260507040409 | 53 | 290 | 3.0 | 6.0 | 0.00 | 0.00 | 0.00 | 99 | 1006.2 |
| 20260507035905 | 54 | 242 | 3.0 | 9.0 | 0.00 | 0.31 | 0.31 | 99 | 1006.3 |
| 20260507035402 | 55 | 314 | 5.0 | 11.0 | 0.00 | 0.31 | 0.31 | 99 | 1006.2 |
| 20260507034859 | 56 | 270 | 4.0 | 8.0 | 0.00 | 0.31 | 0.31 | 99 | 1005.9 |
| 20260507034356 | 57 | 0 | 3.0 | 9.0 | 0.00 | 0.31 | 0.31 | 99 | 1005.9 |
| 20260507033854 | 57 | 99 | 0.0 | 17.0 | 0.00 | 0.31 | 0.31 | 99 | 1005.9 |
| 20260507033352 | 57 | 314 | 7.0 | 8.0 | 0.00 | 0.31 | 0.31 | 99 | 1005.9 |
| 20260507032848 | 57 | 320 | 3.0 | 12.0 | 0.00 | 0.31 | 0.31 | 99 | 1005.9 |
| 20260507032345 | 57 | 319 | 6.0 | 7.0 | 0.00 | 0.31 | 0.31 | 99 | 1005.9 |
| 20260507031841 | 54 | 344 | 3.0 | 8.0 | 0.00 | 0.31 | 0.31 | 99 | 1006.0 |
| 20260507031338 | 52 | 0 | 1.0 | 3.0 | 0.00 | 0.31 | 0.31 | 99 | 1005.6 |
| 20260507030834 | 51 | 314 | 5.0 | 5.0 | 0.00 | 0.31 | 0.31 | 99 | 1005.6 |
| 20260507030332 | 52 | 172 | 0.0 | 3.0 | 0.00 | 0.31 | 0.31 | 99 | 1005.7 |
| 20260507025829 | 52 | 168 | 1.0 | 4.0 | 0.00 | 0.31 | 0.31 | 99 | 1005.5 |
| 20260507025326 | 52 | 145 | 3.0 | 4.0 | 0.00 | 0.31 | 0.31 | 99 | 1005.6 |
| 20260507024824 | 52 | 158 | 3.0 | 4.0 | 0.00 | 0.31 | 0.31 | 99 | 1005.6 |
| 20260507024321 | 52 | 170 | 2.0 | 5.0 | 0.00 | 0.31 | 0.31 | 99 | 1005.6 |
| 20260507023817 | 51 | 128 | 2.0 | 3.0 | 0.00 | 0.31 | 0.31 | 99 | 1005.5 |
| 20260507023313 | 51 | 194 | 0.0 | 3.0 | 0.00 | 0.31 | 0.31 | 99 | 1005.7 |
| 20260507022811 | 51 | 210 | 2.0 | 3.0 | 0.00 | 0.31 | 0.31 | 99 | 1005.7 |
| 20260507022307 | 52 | 68 | 0.0 | 6.0 | 0.00 | 0.31 | 0.31 | 99 | 1005.9 |
| 20260507021803 | 51 | 73 | 2.0 | 2.0 | 0.00 | 0.31 | 0.31 | 99 | 1005.8 |
| 20260507021259 | 51 | 35 | 1.0 | 3.0 | 0.00 | 0.31 | 0.31 | 99 | 1005.7 |
| 20260507020757 | 52 | 0 | 0.0 | 3.0 | 0.00 | 0.31 | 0.31 | 99 | 1005.9 |
| 20260507020253 | 52 | 75 | 1.0 | 2.0 | 0.00 | 0.31 | 0.31 | 99 | 1006.0 |
| 20260507015751 | 52 | 90 | 0.0 | 2.0 | 0.00 | 0.31 | 0.31 | 99 | 1006.1 |
| 20260507015248 | 52 | 35 | 0.0 | 3.0 | 0.00 | 0.31 | 0.31 | 99 | 1006.0 |
| 20260507014745 | 53 | 157 | 0.0 | 3.0 | 0.00 | 0.31 | 0.31 | 99 | 1006.2 |
| 20260507014241 | 53 | 182 | 3.0 | 5.0 | 0.00 | 0.31 | 0.31 | 99 | 1006.1 |
| 20260507013738 | 54 | 203 | 3.0 | 5.0 | 0.00 | 0.31 | 0.31 | 99 | 1006.1 |
| 20260507013236 | 54 | 195 | 2.0 | 3.0 | 0.00 | 0.31 | 0.31 | 99 | 1006.3 |
| 20260507012733 | 54 | 182 | 3.0 | 5.0 | 0.00 | 0.31 | 0.31 | 99 | 1006.0 |
| 20260507012228 | 54 | 217 | 4.0 | 6.0 | 0.00 | 0.31 | 0.31 | 99 | 1006.3 |
| 20260507011726 | 54 | 221 | 5.0 | 7.0 | 0.02 | 0.31 | 0.31 | 99 | 1006.3 |
| 20260507011222 | 54 | 224 | 8.0 | 8.0 | 0.02 | 0.31 | 0.31 | 99 | 1006.3 |
| 20260507010722 | 54 | 152 | 2.0 | 8.0 | 0.00 | 0.31 | 0.31 | 99 | 1006.1 |
| 20260507010218 | 54 | 194 | 6.0 | 8.0 | 0.00 | 0.31 | 0.31 | 99 | 1006.2 |
| 20260507005716 | 54 | 225 | 6.0 | 12.0 | 0.00 | 0.31 | 0.31 | 99 | 1006.3 |
| 20260507005212 | 54 | 230 | 7.0 | 12.0 | 0.00 | 0.31 | 0.31 | 99 | 1006.3 |
| 20260507004708 | 54 | 222 | 5.0 | 11.0 | 0.00 | 0.31 | 0.31 | 99 | 1006.4 |
| 20260507004206 | 54 | 229 | 9.0 | 18.0 | 0.00 | 0.31 | 0.31 | 99 | 1006.3 |
| 20260507003702 | 54 | 203 | 14.0 | 15.0 | 0.00 | 0.31 | 0.31 | 99 | 1006.1 |
| 20260507003158 | 54 | 266 | 5.0 | 9.0 | 0.00 | 0.31 | 0.31 | 99 | 1006.2 |
| 20260507002654 | 54 | 160 | 15.0 | 17.0 | 0.00 | 0.31 | 0.31 | 99 | 1006.4 |
| 20260507002150 | 54 | 220 | 10.0 | 13.0 | 0.00 | 0.31 | 0.31 | 99 | 1006.3 |
| 20260507001647 | 54 | 225 | 7.0 | 13.0 | 0.02 | 0.31 | 0.31 | 99 | 1006.2 |
| 20260507001144 | 54 | 201 | 4.0 | 9.0 | 0.02 | 0.31 | 0.31 | 99 | 1006.2 |
| 20260507000641 | 54 | 220 | 5.0 | 12.0 | 0.00 | 0.30 | 0.30 | 99 | 1006.2 |
| 20260507000136 | 54 | 190 | 5.0 | 12.0 | 0.02 | 0.30 | 0.30 | 99 | 1006.1 |
| 20260506235634 | 54 | 243 | 3.0 | 15.0 | 0.12 | 0.30 | 0.30 | 99 | 1006.1 |
| 20260506235133 | 54 | 195 | 7.0 | 10.0 | 0.14 | 0.30 | 0.30 | 99 | 1005.9 |
| 20260506234631 | 54 | 203 | 7.0 | 12.0 | 0.07 | 0.28 | 0.28 | 99 | 1006.2 |
| 20260506234128 | 54 | 220 | 7.0 | 13.0 | 0.02 | 0.28 | 0.28 | 99 | 1006.0 |
| 20260506233625 | 54 | 235 | 6.0 | 14.0 | 0.05 | 0.27 | 0.27 | 99 | 1006.2 |
| 20260506233122 | 54 | 213 | 7.0 | 12.0 | 0.05 | 0.27 | 0.27 | 99 | 1006.2 |
| 20260506232618 | 54 | 190 | 6.0 | 13.0 | 0.05 | 0.26 | 0.26 | 99 | 1006.2 |
| 20260506232114 | 54 | 216 | 6.0 | 11.0 | 0.05 | 0.26 | 0.26 | 99 | 1006.3 |
| 20260506231611 | 54 | 209 | 10.0 | 17.0 | 0.02 | 0.26 | 0.26 | 99 | 1006.2 |
| 20260506231109 | 54 | 212 | 11.0 | 14.0 | 0.02 | 0.25 | 0.25 | 99 | 1006.1 |
| 20260506230606 | 54 | 225 | 8.0 | 17.0 | 0.02 | 0.25 | 0.25 | 99 | 1006.2 |
| 20260506230103 | 54 | 173 | 9.0 | 20.0 | 0.02 | 0.25 | 0.25 | 99 | 1006.3 |
| 20260506225559 | 54 | 196 | 4.0 | 17.0 | 0.02 | 0.25 | 0.25 | 99 | 1006.4 |
| 20260506225055 | 54 | 193 | 7.0 | 12.0 | 0.00 | 0.24 | 0.24 | 99 | 1006.3 |
| 20260506224553 | 54 | 203 | 10.0 | 15.0 | 0.02 | 0.24 | 0.24 | 99 | 1006.3 |
| 20260506224049 | 54 | 235 | 9.0 | 17.0 | 0.05 | 0.24 | 0.24 | 99 | 1006.4 |
| 20260506223545 | 54 | 188 | 7.0 | 14.0 | 0.05 | 0.24 | 0.24 | 99 | 1006.5 |
| 20260506223042 | 54 | 196 | 6.0 | 10.0 | 0.07 | 0.24 | 0.24 | 99 | 1006.5 |
| 20260506222539 | 54 | 211 | 6.0 | 12.0 | 0.05 | 0.23 | 0.23 | 99 | 1006.5 |
| 20260506222035 | 54 | 189 | 4.0 | 10.0 | 0.05 | 0.22 | 0.22 | 99 | 1006.6 |
| 20260506221533 | 54 | 208 | 7.0 | 19.0 | 0.07 | 0.22 | 0.22 | 99 | 1006.6 |
| 20260506221031 | 55 | 185 | 9.0 | 12.0 | 0.02 | 0.22 | 0.22 | 99 | 1006.7 |
| 20260506220526 | 55 | 202 | 6.0 | 16.0 | 0.00 | 0.21 | 0.21 | 99 | 1006.8 |
| 20260506220022 | 55 | 191 | 9.0 | 12.0 | 0.02 | 0.21 | 0.21 | 99 | 1006.9 |
| 20260506215519 | 55 | 180 | 5.0 | 19.0 | 0.02 | 0.21 | 0.21 | 99 | 1006.8 |
| 20260506215015 | 55 | 180 | 7.0 | 22.0 | 0.02 | 0.21 | 0.21 | 99 | 1007.2 |
| 20260506214512 | 55 | 197 | 6.0 | 14.0 | 0.05 | 0.20 | 0.20 | 99 | 1007.0 |
| 20260506214009 | 55 | 221 | 8.0 | 15.0 | 0.07 | 0.20 | 0.20 | 99 | 1006.9 |
| 20260506213507 | 55 | 232 | 6.0 | 15.0 | 0.05 | 0.20 | 0.20 | 99 | 1007.1 |
| 20260506213004 | 55 | 232 | 10.0 | 13.0 | 0.02 | 0.19 | 0.19 | 99 | 1007.2 |
| 20260506212500 | 55 | 194 | 12.0 | 13.0 | 0.05 | 0.19 | 0.19 | 99 | 1007.2 |
| 20260506211955 | 55 | 189 | 12.0 | 17.0 | 0.07 | 0.19 | 0.19 | 99 | 1007.3 |
| 20260506211451 | 55 | 208 | 5.0 | 12.0 | 0.02 | 0.18 | 0.18 | 99 | 1007.4 |
| 20260506210949 | 56 | 208 | 13.0 | 20.0 | 0.05 | 0.18 | 0.18 | 99 | 1007.4 |
| 20260506210445 | 56 | 213 | 11.0 | 13.0 | 0.05 | 0.17 | 0.17 | 99 | 1007.4 |
| 20260506205942 | 56 | 206 | 9.0 | 20.0 | 0.05 | 0.17 | 0.17 | 99 | 1007.3 |
| 20260506205438 | 56 | 244 | 18.0 | 29.0 | 0.09 | 0.17 | 0.17 | 99 | 1007.3 |
| 20260506204934 | 56 | 183 | 13.0 | 22.0 | 0.12 | 0.16 | 0.16 | 98 | 1007.3 |
| 20260506204432 | 56 | 230 | 10.0 | 17.0 | 0.12 | 0.15 | 0.15 | 98 | 1007.3 |
| 20260506203930 | 57 | 255 | 9.0 | 19.0 | 0.14 | 0.14 | 0.14 | 98 | 1007.5 |
| 20260506203427 | 57 | 186 | 8.0 | 14.0 | 0.21 | 0.13 | 0.13 | 97 | 1007.4 |